Location: Dal�� Lhota
(48.7500°N, 14.0167°E)
Time: 00:35:35
(UTC+00:00)

Vanguard 3 - Pass Details

Date: 03 August 2021
Orbit: 510 x 3260 km, 33.3° (Epoch: 16 September)

Event Time Altitude Azimuth Distance (km) Brightness Sun altitude
Rises 17:45:25 0° 246° (WSW) 5,648 12.3 7.3°
Reaches altitude 10° 17:48:50 10° 240° (WSW) 4,963 11.9 6.8°
Maximum altitude 18:03:20 47° 174° (S) 3,694 10.4 4.5°
Drops below altitude 10° 18:21:36 10° 109° (ESE) 6,147 11.0 1.7°
Sets 18:26:27 0° 104° (ESE) 7,042 11.3 1.0°
